Wind_Speed
14 14 14 14 14 14 15 14 13 13 12 13 14 13 13 12 11 10 10 10 13 12 10 12 12 12 12 10 8 6 7 7 3
18 18 18 17 16 16 16 17 16 16 14 13 14 14 13 14 14 12 6 11 15 13 11 11 11 9 10 9 8 9 8 7 7
19 19 20 20 20 20 19 19 19 19 18 17 17 15 15 15 15 13 13 17 19 14 13 12 11 10 8 7 7 8 10 10 10
17 17 17 17 19 20 21 21 22 22 21 20 19 19 18 17 17 15 19 18 20 17 16 15 14 12 12 10 7 7 8 10 12
19 19 19 19 19 19 19 20 21 23 24 23 22 21 21 21 20 20 19 21 23 20 17 17 16 14 14 14 15 13 11 9 11
18 19 19 19 19 19 19 20 21 21 23 23 22 23 23 20 20 19 19 19 23 23 20 19 17 16 15 15 15 15 17 16 13
16 17 18 20 21 20 19 20 19 17 15 12 11 15 18 18 14 16 22 18 20 23 22 21 19 18 18 17 17 17 17 18 19
13 13 15 17 17 17 19 19 17 16 17 18 18 15 16 16 20 20 17 20 19 18 20 20 19 19 19 19 20 20 20 20 20
15 16 17 16 19 20 18 19 18 15 16 15 13 15 18 19 20 22 19 17 21 23 25 23 21 20 20 20 18 20 21 22 22
16 17 16 16 20 20 20 20 18 17 16 15 14 14 15 18 20 19 23 22 21 24 24 23 24 25 24 23 22 21 18 19 20
17 17 17 16 18 19 20 19 17 16 15 14 13 13 13 14 14 19 22 24 23 23 24 24 24 25 24 24 24 24 23 23 21
17 17 17 17 17 18 17 16 15 14 13 14 10 10 11 14 13 12 14 20 20 20 19 19 24 25 26 25 25 24 24 24 23
18 17 16 16 17 17 16 16 15 12 12 12 9 11 13 13 12 12 12 14 16 19 17 15 17 21 24 24 24 24 23 23 24
18 16 15 15 17 15 15 16 15 13 13 12 8 10 10 12 13 14 16 17 16 16 17 16 14 15 17 20 21 22 22 23 24
17 16 14 15 16 15 15 15 13 11 13 14 7 4 7 11 9 7 7 10 11 9 7 8 6 6 8 12 14 16 18 20 21
15 15 15 16 15 14 13 14 14 8 12 10 5 3 8 3 2 2 4 4 3 3 4 4 5 4 6 6 9 11 13 14 15
15 15 15 15 15 13 12 13 13 9 8 12 5 3 3 4 4 3 4 5 4 4 4 6 7 9 10 11 11 11 12 14 14
14 13 13 13 13 13 11 12 12 13 5 6 5 5 5 9 3 8 5 6 4 6 10 10 8 10 10 13 15 14 12 13 14
13 12 12 12 12 11 11 9 9 9 14 5 2 3 6 4 5 1 6 6 6 8 11 11 11 13 14 12 15 16 15 14 14
13 12 11 11 11 10 10 9 8 5 10 12 9 5 6 6 9 12 9 8 8 11 12 9 11 12 14 14 16 16 14 14 15
Wind_Direction
308 306 304 301 296 291 289 287 287 285 278 279 278 275 272 267 265 257 230 240 246 250 253 239 245 245 247 250 253 245 237 251 253
308 305 300 297 294 290 288 287 283 281 276 272 268 268 267 264 260 255 249 261 259 250 247 242 239 238 239 240 238 234 236 235 247
307 302 299 298 295 290 285 282 281 280 275 270 269 266 259 260 260 251 220 242 265 248 243 240 235 225 217 222 229 230 231 240 246
323 318 318 309 303 297 292 285 279 275 274 271 265 263 260 257 261 252 228 229 249 259 246 240 237 232 233 236 238 238 238 244 249
328 325 320 316 310 303 298 292 284 277 271 268 267 263 259 254 255 259 254 232 237 246 248 244 242 238 239 245 245 245 251 256 257
322 318 319 316 317 317 311 303 296 286 276 270 266 264 259 257 257 259 265 257 243 239 244 245 243 245 243 245 248 248 248 252 257
327 326 326 327 325 322 318 314 309 300 287 275 264 268 265 256 251 273 266 256 251 247 245 244 244 245 249 251 252 254 255 254 253
329 323 317 320 324 318 314 311 308 298 282 274 249 244 243 235 236 235 257 262 260 253 246 249 252 249 253 254 257 259 259 259 258
329 326 321 326 326 317 313 310 305 296 287 280 280 267 246 242 235 231 239 251 253 254 255 251 250 254 257 258 259 258 258 260 260
331 326 324 328 320 316 316 312 305 297 292 283 262 265 269 253 237 234 235 246 254 256 256 255 252 251 254 254 255 253 255 258 260
327 328 325 324 323 319 318 313 308 306 303 295 276 260 262 270 257 239 236 244 254 260 262 254 250 252 254 256 256 257 257 256 258
330 329 328 327 325 324 322 317 311 307 298 288 284 285 274 254 248 262 253 244 251 260 269 257 249 250 252 253 256 257 256 256 256
334 331 330 328 329 329 331 330 323 321 320 308 280 259 254 259 241 232 242 254 252 257 264 268 255 253 253 254 255 257 256 256 255
333 333 329 330 331 336 335 328 326 327 332 323 296 282 269 264 250 241 238 246 255 258 263 264 275 267 259 257 257 257 256 255 258
329 333 330 331 332 333 330 333 336 339 345 317 345 319 285 273 266 247 248 262 259 265 254 268 275 288 271 259 260 261 260 261 262
324 331 333 331 330 332 330 330 335 353 334 328 323 312 330 345 352 69 270 285 227 237 210 211 264 273 280 275 260 260 260 261 261
319 327 328 330 330 334 333 336 340 342 359 341 9 6 290 345 335 283 238 286 303 301 283 261 242 250 271 285 281 269 263 261 261
313 320 325 328 329 333 335 340 340 344 350 333 36 348 5 352 248 326 324 297 314 306 308 301 286 276 272 266 273 277 274 269 266
314 318 321 326 328 330 330 327 331 339 335 1 334 274 291 339 326 271 327 334 355 309 299 298 289 284 290 277 273 274 272 269 266
311 316 318 326 328 329 328 329 331 325 328 335 337 321 222 239 269 301 258 246 242 265 265 279 286 287 288 287 282 280 282 275 270
Height
1531 1530 1529 1529 1527 1527 1527 1526 1526 1526 1525 1525 1525 1525 1525 1526 1527 1528 1529 1529 1529 1530 1530 1530 1530 1531 1531 1532 1533 1533 1534 1535 1535
1528 1528 1527 1526 1525 1524 1524 1523 1523 1523 1523 1522 1522 1522 1522 1522 1524 1525 1525 1527 1527 1528 1528 1528 1528 1529 1529 1530 1531 1532 1532 1533 1534
1525 1524 1523 1523 1521 1521 1520 1519 1519 1520 1519 1519 1519 1519 1519 1519 1519 1520 1521 1523 1524 1524 1525 1526 1526 1527 1528 1528 1529 1530 1531 1532 1532
1522 1521 1520 1519 1518 1517 1516 1516 1515 1514 1515 1515 1515 1515 1515 1516 1515 1517 1518 1519 1520 1521 1522 1523 1523 1524 1525 1526 1527 1528 1529 1530 1530
1519 1518 1517 1515 1514 1512 1511 1511 1510 1509 1509 1510 1511 1511 1511 1511 1512 1512 1513 1515 1515 1517 1518 1519 1520 1521 1522 1523 1525 1526 1527 1528 1529
1518 1516 1514 1512 1511 1509 1507 1506 1505 1504 1504 1504 1504 1505 1506 1507 1507 1508 1509 1510 1510 1512 1514 1515 1516 1518 1520 1521 1522 1523 1524 1525 1526
1515 1513 1511 1509 1507 1506 1504 1502 1501 1500 1499 1498 1499 1500 1501 1503 1504 1505 1505 1505 1506 1508 1510 1511 1512 1514 1516 1518 1518 1519 1520 1521 1523
1513 1511 1509 1507 1505 1502 1500 1499 1498 1496 1495 1495 1495 1495 1496 1498 1499 1500 1501 1501 1503 1504 1506 1507 1508 1510 1512 1513 1514 1515 1516 1517 1518
1511 1509 1507 1504 1502 1500 1497 1495 1494 1492 1492 1491 1491 1491 1491 1493 1494 1495 1496 1497 1499 1500 1501 1502 1504 1505 1507 1508 1510 1511 1511 1512 1514
1509 1507 1504 1501 1500 1497 1493 1492 1490 1488 1488 1488 1488 1488 1488 1488 1489 1490 1492 1492 1494 1495 1496 1497 1498 1500 1502 1503 1505 1506 1507 1508 1509
1507 1504 1502 1499 1496 1494 1491 1489 1487 1485 1484 1484 1484 1484 1485 1486 1485 1486 1487 1488 1489 1490 1491 1492 1493 1495 1496 1498 1499 1501 1502 1503 1504
1505 1501 1499 1496 1494 1491 1488 1487 1484 1482 1481 1481 1481 1482 1482 1482 1482 1483 1484 1484 1485 1485 1485 1486 1487 1489 1491 1493 1494 1495 1497 1498 1500
1503 1499 1497 1494 1492 1489 1486 1484 1482 1480 1478 1477 1477 1478 1478 1479 1479 1480 1481 1481 1482 1481 1481 1482 1482 1484 1485 1487 1489 1490 1492 1493 1494
1501 1497 1495 1493 1490 1487 1485 1483 1481 1478 1476 1474 1474 1474 1475 1476 1476 1476 1477 1478 1477 1478 1478 1478 1479 1479 1481 1482 1483 1485 1486 1487 1488
1499 1496 1493 1491 1488 1486 1484 1481 1479 1477 1475 1473 1471 1471 1472 1473 1473 1473 1474 1474 1474 1475 1475 1476 1476 1476 1477 1478 1479 1480 1482 1482 1484
1496 1494 1491 1489 1487 1484 1482 1480 1477 1476 1474 1471 1470 1470 1472 1471 1472 1473 1473 1473 1473 1473 1474 1475 1475 1475 1476 1476 1476 1477 1478 1478 1479
1494 1492 1490 1488 1485 1483 1481 1479 1477 1475 1475 1472 1471 1471 1473 1472 1473 1473 1473 1473 1473 1473 1473 1474 1474 1474 1474 1473 1473 1474 1474 1475 1476
1491 1490 1488 1486 1484 1481 1480 1478 1477 1474 1475 1474 1475 1473 1473 1472 1472 1473 1473 1473 1473 1473 1472 1471 1471 1471 1471 1471 1470 1471 1471 1472 1472
1488 1487 1486 1484 1482 1480 1478 1477 1476 1475 1473 1473 1474 1475 1476 1475 1473 1473 1473 1473 1472 1472 1471 1470 1469 1469 1468 1468 1467 1467 1468 1468 1468
1486 1485 1484 1482 1480 1478 1477 1476 1474 1473 1472 1472 1471 1471 1473 1475 1474 1472 1471 1470 1469 1468 1467 1467 1467 1466 1465 1465 1464 1464 1465 1464 1464